User: anonymous   Login
Location: Haliburton Scout Reserve
(45.0900°N, 78.3200°W)
Time: 11:15:26
(UTC-04:00)
Language:

IDEFIX/ARIANE 42P - Orbit

View from above orbital plane
View from above orbital plane
View from above satellite
View from above satellite

Ground track
Ground track

The orbit data is extracted from the following two-line orbital elements,

1 27422U 02021B   17086.88146553 -.00000043 +00000-0 -91181-6 0  9999
2 27422 098.2303 091.6532 0013403 115.1208 245.1367 14.29251551776956
Epoch (UTC): 27 March 2017 21:09:18
Eccentricity: 0.0013403
inclination: 98.2303°
perigee height: 784 km
apogee height: 804 km
right ascension of ascending node: 91.6532°
argument of perigee: 115.1208°
revolutions per day: 14.29251551
mean anomaly at epoch: 245.1367°
orbit number at epoch: 77695

The dashed part of the orbit path shows where the satellite is in the earth's shadow,  

DLR